{"data":{"norad_id":61608,"intl_designator":"2024-188Q","name":"ONEWEB-0702","alt_names":[],"object_type":"PAYLOAD","status":"ACTIVE","operator":null,"country":"UK","launch_date":"2024-10-20","launch_site_code":"AFWTR","launch_vehicle":null,"mission":null,"orbit_class":"UNKNOWN","rcs_meters":null,"size_class":null,"mass_kg":null,"dimensions":null,"purposes":["comms"],"wikipedia_slug":null,"has_3d_model":false,"image_url":null,"decayed_at":null,"tle_current":{"epoch":"2026-09-19T13:13:46.796448Z","epoch_age_seconds":100220,"freshness":"FRESH","line1":"1 61608U 24188Q   26262.55123607 -.00000175  00000+0 -52874-3 0  9994","line2":"2 61608  87.8985   2.2421 0000642 111.6304 248.4892 13.11417966 96851","mean_motion":13.11417966,"eccentricity":6.42e-5,"inclination_deg":87.8985,"raan_deg":2.2421,"arg_perigee_deg":111.6304,"mean_anomaly_deg":248.4892,"bstar":-0.00052874,"rev_number":9685,"period_min":109.80480955223,"perigee_km":1217.1911045353,"apogee_km":1218.1664072783,"semimajor_km":7595.8157559068,"source":"CELESTRAK","updated_at":"2026-09-20T09:00:44.801117Z"}}}